Location: Gleizolles
(44.4833°N, 6.7667°E)
Time: 16:04:02
(UTC+00:00)

Explorer 7 - Pass Details

Date: 23 June 2024
Orbit: 465 x 619 km, 50.3° (Epoch: 12 July)

Event Time Altitude Azimuth Distance (km) Brightness Sun altitude
Rises 08:27:19 0° 188° (S) 2,737 10.4 46.5°
Reaches altitude 10° 08:30:42 10° 159° (SSE) 1,806 9.9 47.1°
Maximum altitude 08:32:33 13° 133° (SE) 1,617 10.1 47.4°
Drops below altitude 10° 08:34:21 10° 106° (ESE) 1,767 10.4 47.7°
Sets 08:37:35 0° 77° (ENE) 2,620 10.8 48.2°
